Location: Hannover
(52.3723°N, 9.7339°E)
Time: 23:59:53
(UTC+01:00)

ISS - Pass Details

Date: 13 January 2018
Orbit: 402 x 407 km, 51.6° (Epoch: 20 January)

Event Time Altitude Azimuth Distance (km) Brightness Sun altitude
Exits shadow 07:06:41 - 243° (WSW) 1,502 -1.3 -11.5°
Reaches altitude 10° 07:06:58 10° 239° (WSW) 1,464 -1.4 -11.4°
Maximum altitude 07:07:55 11° 222° (SW) 1,405 -1.3 -11.3°
Drops below altitude 10° 07:08:53 10° 205° (SSW) 1,462 -1.0 -11.1°
Sets 07:12:15 0° 167° (SSE) 2,318 0.5 -10.7°
